Location: Unspecified
(0.0000°N, 0.0000°E)
Time: 09:18:40
(UTC+00:00)

XW-2C - Pass Details

Date: 18 May 2021
Orbit: 506 x 525 km, 97.5° (Epoch: 17 June)

Event Time Altitude Azimuth Distance (km) Brightness Sun altitude
Rises 05:24:19 0° 17° (NNE) 2,632 ? -7.6°
Reaches altitude 10° 05:26:26 10° 20° (NNE) 1,745 ? -7.1°
Maximum altitude 05:30:10 62° 101° (ESE) 585 ? -6.2°
Drops below altitude 10° 05:33:52 10° 182° (S) 1,742 ? -5.3°
Sets 05:35:58 0° 185° (S) 2,628 ? -4.8°
